Regional Weather Roundup
Issued by NWS

Home | Current Version | Previous Version | Graphics & Text | Print | Product List | Glossary On
Versions: 1 2 3 4 5 6 7 8 9 10 11 12 13 14 15 16 17 18 19 20 21 22 23 24 25 26 27 28 29 30 31 32 33 34 35 36 37 38 39 40 41 42 43 44 45 46 47 48 49 50
000
ASUS43 KLMK 271110
RWRKY
KENTUCKY REGIONAL WEATHER ROUNDUP
NATIONAL WEATHER SERVICE LOUISVILLE KY
700 AM EDT WED AUG 27 2014

NOTE "FAIR" INDICATES FEW OR NO CLOUDS BELOW 12,000 FEET
WITH NO SIGNIFICANT WEATHER AND/OR OBSTRUCTIONS TO VISIBILITY.

KYZ001>023-026-027-061>063-070>075-271200-
WESTERN AND SOUTH CENTRAL KENTUCKY

CITY           SKY/WX    TMP DP  RH WIND       PRES   REMARKS
PADUCAH        CLEAR     73  70  90 CALM      30.07R FOG
HENDERSON      CLOUDY   N/A N/A N/A MISG        N/A  VSB 1/4
OWENSBORO      CLEAR     73  73 100 CALM      30.08R FOG
HOPKINSVILLE   MOCLDY    71  71 100 CALM      30.09R
BOWLING GREEN  CLEAR     71  69  93 CALM      30.09R
GLASGOW        CLEAR     67  67 100 CALM      30.10R FOG
$$

KYZ024-025-028>034-038-045-046-053-271200-
NORTH CENTRAL KENTUCKY

CITY           SKY/WX    TMP DP  RH WIND       PRES   REMARKS
LOUISVILLE/SDF PTCLDY    75  71  87 SE3       30.09R
LOUISVILLE/LOU CLEAR     73  70  90 CALM      30.09R
FORT KNOX      FOG       70  70 100 CALM      30.09R VSB 3/4
$$

KYZ035>037-039>044-047>052-055>060-089>105-271200-
NORTHEAST KENTUCKY

CITY           SKY/WX    TMP DP  RH WIND       PRES   REMARKS
LEXINGTON      CLEAR     69  64  84 CALM      30.11S
COVINGTON      PTCLDY    72  68  87 CALM      30.10R
FRANKFORT      CLEAR     68  66  93 CALM      30.10R
$$

KYZ054-064>069-076>088-106>120-271200-
SOUTHEAST KENTUCKY

CITY           SKY/WX    TMP DP  RH WIND       PRES   REMARKS
JACKSON        CLEAR     63  60  90 E3        30.13R
LONDON         PTCLDY    63  59  87 CALM      30.13R
SOMERSET       CLEAR     61  61 100 CALM      30.13R
MIDDLESBORO    FOG       62  62 100 CALM      30.14S VSB 1/2
MONTICELLO     SUNNY     61  61 100 CALM      30.13R FOG
$$




USA.gov is the U.S. government's official web portal to all federal, state and local government web resources and services.